Location: Pitton
(51.0667°N, 1.7000°W)
Time: 05:46:16
(UTC+00:00)

Nadezhda 1 Rocket - Pass Details

Date: 17 September 2019
Orbit: 942 x 1005 km, 83.0° (Epoch: 18 October)

Event Time Altitude Azimuth Distance (km) Brightness Sun altitude
Rises 19:05:18 0° 174° (S) 3,598 6.8 -8.3°
Reaches altitude 10° 19:07:48 10° 171° (S) 2,655 6.1 -8.7°
Maximum altitude 19:13:44 59° 93° (E) 1,079 4.0 -9.6°
Drops below altitude 10° 19:19:43 10° 16° (NNE) 2,680 6.3 -10.5°
Sets 19:22:15 0° 13° (NNE) 3,634 7.1 -10.8°
